{"data":{"norad_id":61951,"intl_designator":"2024-209N","name":"STARLINK-11395 [DTC]","alt_names":[],"object_type":"PAYLOAD","status":"ACTIVE","operator":null,"country":"US","launch_date":"2024-11-14","launch_site_code":"AFWTR","launch_vehicle":null,"mission":null,"orbit_class":"UNKNOWN","rcs_meters":null,"size_class":null,"mass_kg":null,"dimensions":null,"purposes":["comms"],"wikipedia_slug":null,"has_3d_model":false,"image_url":null,"decayed_at":null,"tle_current":{"epoch":"2026-09-21T22:48:29.228256Z","epoch_age_seconds":60337,"freshness":"FRESH","line1":"1 61951U 24209N   26264.95033829  .00122368  00000+0  10018-2 0  9991","line2":"2 61951  53.1564 123.7092 0000812  35.1603 324.9468 15.69668699107505","mean_motion":15.69668699,"eccentricity":8.12e-5,"inclination_deg":53.1564,"raan_deg":123.7092,"arg_perigee_deg":35.1603,"mean_anomaly_deg":324.9468,"bstar":0.0010018,"rev_number":10750,"period_min":91.73910398528,"perigee_km":359.29781653046,"apogee_km":360.39206479762,"semimajor_km":6737.981940664,"source":"CELESTRAK","updated_at":"2026-09-22T09:00:49.456006Z"}}}